Regional Weather Roundup
Issued by NWS State College, PA

Home | Current Version | Previous Version | Graphics & Text | Print | Product List | Glossary Off
Versions: 1 2 3 4 5 6 7 8 9 10 11 12 13 14 15 16 17 18 19 20 21 22 23 24 25 26 27 28 29 30 31 32 33 34 35 36 37 38 39 40 41 42 43 44 45 46 47 48 49 50

000
ASUS41 KCTP 222303
RWRCTP

REGIONAL WEATHER ROUNDUP
NATIONAL WEATHER SERVICE STATE COLLEGE PA
600 PM EST SAT NOV 22 2014

Note: "fair" indicates few or no clouds below 12,000 feet with no
significant weather and/or obstructions to visibility.

* = STATION THAT DOES NOT REPORT PRECIPITATION /E.G. RAIN...SNOW...ETC/
    THUNDER OR FOG.

PAZ002>004-007>009-013>016-020>023-029>032-230000-
WESTERN PENNSYLVANIA

CITY           SKY/WX    TMP DP  RH WIND       PRES   REMARKS
ERIE           LGT RAIN  43  37  79 S17       30.03S
MEADVILLE      CLOUDY    39  33  79 S8        30.07R
FRANKLIN*      CLOUDY    36  30  80 S12       30.11S
NEW CASTLE       N/A     39  32  76 CALM      30.13S
BEAVER COUNTY  NOT AVBL
BUTLER*        CLOUDY    43  30  61 S7        30.15S
PITTSBURGH INT CLOUDY    46  32  58 S6        30.14S
PITTSBURGH     CLOUDY    46  25  43 S12       30.14F
INDIANA*       CLOUDY    43  30  61 SW7       30.18S
LATROBE        CLOUDY    45  28  53 S7        30.17F
WASHINGTON CO* CLOUDY    48  28  46 S6        30.16S
$$

PAZ004>006-010>012-017>019-024>028-033>037-041-042-045-046-049>053-230000-
CENTRAL PENNSYLVANIA

CITY           SKY/WX    TMP DP  RH WIND       PRES   REMARKS
BRADFORD       RAIN      36  32  85 SW9G18    30.07S FOG
DUBOIS         CLOUDY    38  31  76 SW12      30.10F
CLEARFIELD     CLOUDY    33  32  96 CALM      30.14F
JOHNSTOWN      CLOUDY    45  27  49 SW12      30.15F
ALTOONA        CLOUDY    43  31  62 S7        30.17F
STATE COLLEGE  CLOUDY    34  25  69 CALM      30.17F
WILLIAMSPORT   LGT RAIN  34  24  67 VRB5      30.22S
SELINSGROVE    CLOUDY    39  16  39 S6        30.24S
FT INDIANTOWN  CLOUDY    40  16  38 SW3       30.27S
CAPITAL CITY   CLOUDY    42  17  36 CALM      30.27S
HARRISBURG     CLOUDY    40  19  43 CALM      30.27S
YORK           CLOUDY    40  20  44 CALM      30.26F
$$

PAZ038>040-043-044-047-048-054-055-060>062-067>071-230000-
EASTERN PENNSYLVANIA

CITY           SKY/WX    TMP DP  RH WIND       PRES   REMARKS
SCRANTON       CLOUDY    38  17  42 W8        30.19F
MOUNT POCONO   CLOUDY    34  13  41 SW13      30.17S
ALLENTOWN      CLOUDY    41  16  36 SW13      30.26F
QUAKERTOWN*    MOCLDY    39  19  45 SW7       30.27F
READING        CLOUDY    42  18  37 S5        30.27F
LANCASTER      CLOUDY    40  19  43 SE3       30.27S
COATESVILLE    CLOUDY    39  21  48 S6        30.27F
POTTSTOWN      CLOUDY    40  18  41 CALM      30.29F
BLUE BELL      CLOUDY    43  21  42 SW3       30.28F
DOYLESTOWN     CLOUDY    40  18  41 SW8       30.26F
WILLOW GROVE   NOT AVBL
NORTH PHILA    CLOUDY    45  16  31 SW13      30.31S
PHILADELPHIA   CLOUDY    44  20  38 SW13      30.31S
$$


USA.gov is the U.S. government's official web portal to all federal, state and local government web resources and services.